Regional Weather Roundup
Issued by NWS

Home | Current Version | Previous Version | Graphics & Text | Print | Product List | Glossary On
Versions: 1 2 3 4 5 6 7 8 9 10 11 12 13 14 15 16 17 18 19 20 21 22 23 24 25 26 27 28 29 30 31 32 33 34 35 36 37 38 39 40 41 42 43 44 45 46 47 48 49 50
000
ASUS43 KMPX 210210
RWRMN
WEATHER ROUNDUP FOR MINNESOTA
NATIONAL WEATHER SERVICE TWIN CITIES/CHANHASSEN MN
800 PM CST MON NOV 20 2017


NOTE: "FAIR" INDICATES FEW OR NO CLOUDS BELOW 12,000 FEET WITH NO
SIGNIFICANT WEATHER AND/OR OBSTRUCTIONS TO VISIBILITY. N/A MEANS
CURRENT SKY AND/OR WEATHER CONDITIONS ARE NOT AVAILABLE.

MNZ060>063-068>070-210300-
   Twin Cities Metro

CITY           SKY/WX    TMP DP  RH WIND       PRES   REMARKS
TWIN CITIES    PTCLDY    44  29  55 W10       29.47R
ST PAUL        PTCLDY    43  28  55 VRB3      29.48R
CRYSTAL        CLEAR     44  25  47 SW9       29.45R
BLAINE         MOCLDY    45  28  53 SW8       29.45R
LAKEVILLE      PTCLDY    43  28  56 SW9       29.47S
EDEN PRAIRIE   PTCLDY    43  27  53 W12       29.47R
SOUTH ST PAUL  PTCLDY    45  27  49 SW9       29.46S
LAKE ELMO      FAIR      43  30  61 SW9       29.46S
$$
MNZ001>005-007-008-013>017-022>024-027-028-210300-
   Northwest Minnesota

CITY           SKY/WX    TMP DP  RH WIND       PRES   REMARKS
BEMIDJI        CLOUDY    37  30  75 W30       29.34R
HALLOCK        CLOUDY    27  19  74 NW30G44   29.45R WCI  10
ROSEAU         CLOUDY    27  19  74 NW29G45   29.33R WCI  11
WARROAD        CLOUDY    28  21  74 W29G44    29.30R WCI  13
THIEF RVR FALL CLOUDY    30  23  75 NW31G39   29.42R WCI  15
CROOKSTON      CLOUDY    32  23  69 NW32G44   29.48R WCI  17
FOSSTON        CLOUDY    34  25  69 W30G41    29.42R WCI  20
DETROIT LAKES  CLOUDY    36  30  80 NW26G38   29.47R
MOORHEAD       CLEAR     36  28  75 W26G33    29.52R
PARK RAPIDS    CLOUDY    39  30  70 W31G41    29.38R
MAHNOMEN       FAIR      35  28  78 NW22G36   29.45R WCI  23
$$
MNZ006-009>011-018-025>026-210300-
   North Central Minnesota

CITY           SKY/WX    TMP DP  RH WIND       PRES   REMARKS
BAUDETTE       CLOUDY    34  28  79 NW33G46   29.24R WCI  20
FLAG ISLAND    CLOUDY    30  23  74 W28G44    29.22R WCI  16
INTL FALLS       N/A     39  27  62 W13G21    29.19S
WASKISH        CLOUDY    37  30  75 W32G40    29.28R
BIG FORK       CLOUDY    39  28  65 W15G24    29.25S
LONGVILLE      PTCLDY    39  28  65 W15G22    29.34R
GRAND RAPIDS   CLOUDY    40  27  59 W14G21    29.30S
CRANE LAKE     PTCLDY    37  27  65 SW6       29.21S
ORR            MOCLDY    39  25  56 W12G23    29.19S
COOK           CLEAR     37  27  65 SW6       29.23S
WALKER         CLOUDY    39  30  69 W21G32    29.34R
$$
MNZ012-019>021-037-210300-
   Northeast Minnesota

CITY           SKY/WX    TMP DP  RH WIND       PRES   REMARKS
DULUTH         CLOUDY    33  27  78 W15       29.28F WCI  23
ELY            CLOUDY    36  27  69 SW9G16    29.21F
HIBBING        CLOUDY    32  26  78 SW3       29.26F
EVELETH        PTCLDY    32  25  74 SW10G18   29.26F WCI  24
DULUTH HARBOR  CLOUDY    37  30  75 SW15      29.32S
TWO HARBORS    PTCLDY    34  28  80 SW8       29.26F WCI  27
SILVER BAY     CLEAR     30  28  93 SW5       29.23F WCI  25
GRAND MARAIS     N/A     35  32  88 W7        29.24F WCI  29
G MARAIS ARPRT CLEAR     28  25  86 SW9G16    29.20F WCI  20
$$
MNZ029>031-032-039>041-046>048-054>057-064-210300-
   West Central Minnesota

CITY           SKY/WX    TMP DP  RH WIND       PRES   REMARKS
FERGUS FALLS   CLEAR     37  28  70 NW25G35   29.53R
WHEATON        CLEAR     43  27  52 NW21G31   29.57R
MORRIS         CLEAR     41  28  60 W15       29.51R
ALEXANDRIA     CLEAR     43  28  55 W21G36    29.47R
ELBOW LAKE     FAIR      39  29  67 NW17      29.52R
WADENA         CLEAR     39  28  65 NW23G35   29.42R
GLENWOOD       CLEAR     43  28  56 W21G28    29.48R
APPLETON         N/A     46  25  42 NW18G24   29.53R
BENSON         CLEAR     45  25  45 N16G22    29.52R
ORTONVILLE     CLEAR     45  25  45 MISG      29.55R
MADISON        CLEAR     50  25  37 NW18G24   29.54R
WILLMAR        FAIR      41  28  60 W14       29.51R
$$
MNZ033>034-036-042>043-049>051-058-059-210300-
   Central Minnesota

CITY           SKY/WX    TMP DP  RH WIND       PRES   REMARKS
ST CLOUD       CLEAR     42  28  57 W15       29.43R
SAUK CENTRE    FAIR      42  28  57 W16       29.46R
PAYNESVILLE    CLEAR     43  29  57 W21       29.48R
AITKIN         CLEAR     37  27  65 W9G16     29.33R
PINE RIVER     CLEAR     39  28  65 W13G22    29.41R
BRAINERD       CLEAR     43  26  51 W13       29.38R
STAPLES        CLEAR     41  27  56 W18G24    29.41R
LONG PRAIRIE   FAIR      43  27  52 SW15G23   29.44R
LITTLE FALLS   CLEAR     41  21  45 W7        29.42S
LITCHFIELD     CLEAR     45  28  53 W13G18    29.49R
BUFFALO        CLEAR     40  28  62 SW3       29.47S
MAPLE LAKE     CLEAR     42  30  62 W10       29.46S
HUTCHINSON     CLEAR     41  29  60 SW8       29.50R
$$
MNZ037-044-045-052-053-210300-
   East Central Minnesota

CITY           SKY/WX    TMP DP  RH WIND       PRES   REMARKS
PRINCETON      CLEAR     37  28  70 CALM      29.43S
MORA           CLEAR     36  28  75 W6        29.40S
CAMBRIDGE      CLEAR     41  28  60 SW5       29.43R
RUSH CITY      CLEAR     40  29  65 SW9       29.41S
MOOSE LAKE     MOCLDY    34  28  80 SW7       29.33F WCI  28
HINCKLEY       FAIR      36  30  80 SW8       29.38F
CLOQUET        CLOUDY    36  27  69 SW8       29.30F
MCGREGOR       PTCLDY    37  30  75 W9        29.33S
$$
MNZ071>073-080-081-089-090-097-098-210300-
   Southwest Minnesota

CITY           SKY/WX    TMP DP  RH WIND       PRES   REMARKS
MONTEVIDEO     CLEAR     43  25  49 N7        29.53R
GRANITE FALLS  CLEAR     40  28  62 SW13      29.54R
CANBY          CLEAR     48  24  38 NW21G26   29.57R
MARSHALL       CLEAR     42  26  53 W15       29.55R
REDWOOD FALLS  CLEAR     44  25  47 SW13      29.52R
OLIVIA         CLEAR     41  28  60 W14       29.50S
PIPESTONE      CLEAR     36  25  64 W7        29.59R
WINDOM         CLOUDY    41  23  48 W9        29.56S
WORTHINGTON    CLOUDY    41  25  53 W13       29.59R
JACKSON        CLOUDY    43  27  52 W12       29.57S
SLAYTON        PTCLDY    42  27  54 W13       29.58R
$$
MNZ065>067-074>077-082>085-091>093-210300-
   South Central Minnesota

CITY           SKY/WX    TMP DP  RH WIND       PRES   REMARKS
MANKATO        PTCLDY    43  27  53 W14       29.53R
NEW ULM        PTCLDY    41  25  52 CALM      29.53R
ST JAMES       PTCLDY    45  27  49 SW13      29.55S
FAIRMONT       MOCLDY    45  28  51 W16       29.56R
GLENCOE        PTCLDY    42  29  61 SW9       29.49R
FARIBAULT      PTCLDY    43  30  61 SW7       29.52R
OWATONNA       CLOUDY    43  30  61 SW14      29.53R
WASECA         PTCLDY    39  30  70 SW10      29.54S
ALBERT LEA     CLOUDY    45  27  49 SW10      29.54R
$$
MNZ078>079-086>088-094>096-210300-
   Southeast Minnesota

CITY           SKY/WX    TMP DP  RH WIND       PRES   REMARKS
ROCHESTER      CLOUDY    42  31  64 SW17      29.52R
RED WING       PTCLDY    43  27  52 CALM      29.48R
STANTON        PTCLDY    43  30  61 SW12      29.49R
DODGE CENTER   CLOUDY    39  28  65 SW13      29.52R
WINONA         CLOUDY    50  30  46 W15G23    29.51R
AUSTIN         CLOUDY    43  28  56 W7        29.54R
PRESTON        CLOUDY    45  29  54 SW15      29.52S
$$
ABBREVIATIONS USED IN REMARKS
   TC - TEMPERATURES IN CELSIUS
  WCI - WIND CHILL INDEX
   HX - HEAT INDEX
  VSB - VISIBILITY
$$




USA.gov is the U.S. government's official web portal to all federal, state and local government web resources and services.